CAPE
0 0 0 0 0 0 0 0 0 0 0 0 0 0 0 18 54 21 46 40 45 0 0 0 0 0 0 0 0 0 0 0 0 0 0 0 7 684 583 815 970 1114 1197 1331
0 0 0 0 0 0 0 0 0 0 0 0 0 0 0 0 0 0 0 85 93 34 3 0 0 0 0 0 0 0 0 0 0 70 51 163 171 293 638 936 1223 1471 1534 1335
0 0 0 0 0 0 0 0 0 0 0 0 0 0 0 0 0 0 0 0 52 80 54 0 0 0 0 0 0 0 0 0 0 8 92 116 207 296 447 660 898 1213 1581 1597
0 0 0 0 0 0 0 0 0 0 0 0 0 0 0 0 0 0 0 1 0 80 108 5 0 0 0 0 0 0 0 0 0 0 94 88 29 29 122 515 667 943 1365 1596
0 0 0 0 0 0 0 0 0 0 0 0 0 0 0 0 0 0 70 138 176 174 151 56 15 5 3 0 0 0 0 13 27 1 6 138 132 195 281 239 304 484 915 1362
0 0 0 0 0 0 0 0 0 0 0 0 0 0 0 0 0 24 193 348 484 523 546 528 584 615 707 706 658 205 0 5 74 101 86 49 108 162 94 124 313 533 645 758
0 0 0 0 0 0 0 0 0 0 0 0 0 2 23 15 12 78 230 272 281 374 364 342 397 256 28 65 223 692 394 186 45 154 274 276 159 74 149 187 213 219 235 419
0 0 0 0 0 0 0 0 0 0 0 0 0 16 67 6 24 45 19 1 6 41 80 40 2 0 0 0 0 0 0 0 43 11 0 230 670 639 574 595 574 240 102 204
0 0 0 0 0 0 0 0 0 0 0 0 12 130 98 15 4 0 0 0 0 0 0 0 0 0 0 0 0 0 0 0 0 0 0 0 0 0 0 0 0 407 440 271
0 0 0 0 0 0 0 0 0 0 0 0 1 5 51 52 0 0 0 0 0 0 0 0 0 0 0 0 0 0 0 0 0 0 0 0 0 0 0 0 0 0 54 221
0 0 0 0 0 0 0 0 0 0 0 0 0 93 143 15 0 0 0 0 0 0 0 0 0 0 0 0 0 0 0 0 0 0 0 0 0 0 0 0 0 0 0 0
0 0 0 0 0 0 0 0 0 0 0 0 0 55 27 0 0 0 0 0 0 0 0 0 0 0 0 0 0 0 0 0 0 0 0 0 0 0 0 0 0 0 0 0
0 0 0 0 0 0 1 0 0 0 0 0 0 17 0 0 0 0 0 0 0 0 0 0 0 0 0 0 0 0 0 0 0 0 0 0 0 0 0 0 0 0 0 0
4 0 0 0 0 0 0 0 0 0 0 0 0 12 0 0 0 0 0 0 0 0 0 0 0 0 0 0 0 0 0 0 0 0 0 0 0 0 0 0 0 0 0 0
0 0 0 0 0 0 0 0 0 0 0 0 0 0 0 0 0 0 0 0 0 0 0 0 0 0 0 0 0 0 0 0 0 0 0 0 0 0 0 0 0 0 0 0
0 0 0 0 0 0 0 0 0 0 0 0 0 0 0 0 0 0 0 0 0 0 0 0 0 0 0 0 0 0 0 0 0 0 0 0 0 0 0 0 0 0 0 0
0 0 0 0 0 0 0 0 0 0 0 0 0 0 0 0 0 0 0 0 0 0 0 0 0 0 0 0 0 0 0 0 0 0 0 0 0 0 0 0 0 0 0 0
0 0 0 0 0 0 0 0 0 0 0 0 0 0 0 0 0 0 0 0 0 0 0 0 0 0 0 0 0 0 0 0 0 0 0 0 0 0 0 0 0 0 0 0
0 0 0 0 0 0 0 0 0 0 0 0 0 0 0 0 0 0 0 0 0 0 0 0 0 0 0 0 0 0 0 0 0 0 0 0 0 0 0 0 0 0 0 0
0 0 0 0 0 0 0 0 0 0 0 0 0 0 0 0 0 0 0 0 0 0 0 0 0 0 0 0 0 0 0 0 0 0 0 0 0 0 0 0 0 0 0 0
0 0 0 0 0 0 0 0 0 0 0 0 0 0 0 0 0 0 0 0 0 0 0 0 0 0 0 0 0 0 0 0 0 0 0 0 0 0 0 0 0 0 0 0
0 0 0 0 0 0 0 0 0 0 0 0 0 0 0 0 0 0 0 0 0 0 0 0 0 0 0 0 0 0 0 0 0 1 0 1 0 0 0 0 0 0 0 0
0 0 0 0 0 0 0 0 0 0 0 0 0 0 0 0 0 0 0 0 0 0 0 0 0 0 0 0 0 0 1 0 2 4 4 1 0 0 0 0 0 3 2 4
0 0 0 0 0 0 0 0 0 0 0 0 0 0 0 0 0 0 0 0 0 0 0 2 0 0 0 0 0 1 0 0 1 3 3 0 2 0 0 1 1 1 3 10
0 0 0 0 0 0 0 0 0 0 0 0 0 0 0 0 0 0 0 0 0 0 0 0 0 0 0 0 0 0 1 0 1 2 0 1 1 0 3 1 1 0 2 7
0 0 0 0 0 0 0 0 0 0 0 0 0 0 0 0 0 0 0 0 0 2 0 0 0 0 0 0 0 0 0 5 1 3 2 5 1 4 0 0 0 0 0 0
CIN
-0 -0 -0 -0 -0 -0 -0 -0 -0 -0 -0 -0 -0 -0 -0 -133 -139 -126 -172 -173 -175 -26 -0 -0 -0 -0 -0 -0 -0 -0 -0 -0 -0 -0 -0 -0 -436 -288 -279 -235 -147 -85 -68 -94
-0 -0 -0 -0 -0 -0 -0 -0 -0 -0 -0 -0 -0 -0 -0 -0 -0 -0 -0 -135 -163 -197 -53 -0 -0 -0 -0 -0 -0 -0 -0 -0 -0 -535 -515 -420 -390 -333 -241 -158 -133 -73 -57 -61
-0 -0 -0 -0 -0 -0 -0 -0 -0 -0 -0 -0 -0 -0 -0 -0 -0 -0 -0 -0 -181 -175 -178 -0 -0 -0 -0 -0 -0 -0 -0 -0 -0 -279 -462 -471 -422 -370 -285 -229 -188 -161 -94 -88
-0 -0 -0 -0 -0 -0 -0 -0 -0 -0 -0 -0 -0 -0 -0 -0 -0 -0 -0 -107 -0 -179 -239 -233 -0 -0 -0 -0 -0 -0 -0 -0 -0 -36 -444 -377 -379 -368 -326 -269 -227 -182 -140 -119
-0 -0 -0 -0 -0 -0 -0 -0 -0 -0 -0 -0 -0 -0 -0 -0 -0 -16 -275 -246 -296 -339 -389 -433 -501 -32 -33 -0 -0 -0 -0 -606 -581 -37 -198 -438 -381 -362 -328 -306 -263 -196 -152 -132
-0 -0 -0 -0 -0 -0 -0 -0 -0 -0 -0 -0 -0 -0 -0 -0 -0 -311 -301 -319 -348 -383 -448 -462 -434 -365 -363 -396 -407 -501 -0 -396 -579 -511 -493 -461 -430 -403 -373 -325 -239 -201 -160 -134
-0 -0 -0 -0 -0 -0 -0 -0 -0 -0 -0 -0 -0 -36 -217 -295 -205 -362 -373 -385 -424 -431 -464 -463 -437 -485 -620 -599 -581 -464 -476 -449 -441 -441 -386 -380 -394 -412 -337 -325 -298 -274 -244 -218
-0 -0 -0 -0 -0 -0 -0 -0 -0 -0 -0 -0 -0 -57 -113 -239 -309 -388 -462 -69 -373 -566 -556 -605 -78 -0 -0 -0 -0 -0 -0 -0 -52 -58 -0 -396 -277 -250 -233 -208 -219 -288 -318 -295
-0 -0 -0 -0 -0 -0 -0 -0 -0 -0 -0 -0 -90 -122 -146 -222 -277 -0 -0 -0 -0 -0 -0 -0 -0 -0 -0 -0 -0 -0 -0 -0 -0 -0 -0 -0 -0 -0 -0 -0 -0 -277 -262 -291
-0 -0 -0 -0 -0 -0 -0 -0 -0 -0 -0 -0 -12 -29 -70 -168 -52 -0 -0 -0 -0 -0 -0 -0 -0 -0 -0 -0 -0 -0 -0 -0 -0 -0 -0 -0 -0 -0 -0 -0 -0 -0 -275 -262
-0 -0 -0 -0 -0 -0 -0 -0 -0 -0 -0 -0 -0 -27 -139 -208 -0 -0 -0 -0 -0 -0 -0 -0 -0 -0 -0 -0 -0 -0 -0 -0 -0 -0 -0 -0 -0 -0 -0 -0 -0 -0 -0 -0
-0 -0 -1 -0 -0 -0 -0 -0 -0 -0 -0 -0 -0 -60 -276 -0 -0 -0 -0 -0 -0 -0 -0 -0 -0 -0 -0 -0 -0 -0 -0 -0 -0 -0 -0 -0 -0 -0 -0 -0 -0 -0 -0 -0
-11 -0 -0 -0 -0 -0 -54 -0 -0 -0 -0 -0 -0 -65 -0 -0 -0 -0 -0 -0 -0 -0 -0 -0 -0 -0 -0 -0 -0 -0 -0 -0 -0 -0 -0 -0 -0 -0 -0 -0 -0 -0 -0 -0
-85 -0 -0 -0 -0 -0 -0 -0 -0 -0 -0 -0 -0 -128 -0 -0 -0 -0 -0 -0 -0 -0 -0 -0 -0 -0 -0 -0 -0 -0 -0 -0 -0 -0 -0 -0 -0 -0 -0 -0 -0 -0 -0 -0
-0 -0 -0 -0 -0 -0 -0 -0 -0 -0 -0 -0 -0 -9 -0 -0 -0 -0 -0 -0 -0 -0 -0 -0 -0 -0 -0 -0 -0 -0 -0 -0 -0 -0 -0 -0 -0 -0 -0 -0 -0 -0 -0 -0
-0 -0 -0 -0 -0 -0 -0 -0 -0 -0 -0 -0 -0 -0 -0 -0 -0 -0 -0 -0 -0 -0 -0 -0 -0 -0 -0 -0 -0 -0 -0 -0 -0 -0 -0 -0 -0 -0 -0 -0 -0 -0 -0 -0
-0 -0 -0 -0 -0 -0 -0 -0 -0 -0 -0 -0 -0 -0 -0 -0 -0 -0 -0 -0 -0 -0 -0 -0 -0 -0 -0 -0 -0 -0 -0 -0 -0 -0 -0 -0 -0 -0 -0 -0 -0 -0 -0 -0
-0 -0 -0 -0 -0 -0 -0 -0 -0 -0 -0 -0 -0 -0 -0 -0 -0 -0 -0 -0 -0 -0 -0 -0 -0 -0 -0 -0 -0 -0 -0 -0 -0 -0 -0 -0 -0 -0 -0 -0 -0 -0 -0 -0
-0 -0 -0 -0 -0 -0 -0 -0 -0 -0 -0 -0 -0 -0 -0 -0 -0 -0 -0 -0 -0 -0 -0 -0 -0 -0 -0 -0 -0 -0 -0 -0 -0 -0 -0 -0 -0 -0 -0 -0 -0 -0 -0 -0
-0 -0 -0 -0 -0 -0 -0 -0 -0 -0 -0 -0 -0 -0 -0 -0 -0 -0 -0 -0 -0 -0 -0 -0 -0 -0 -0 -0 -0 -0 -0 -0 -0 -0 -0 -0 -0 -0 -0 -0 -0 -0 -0 -0
-0 -0 -0 -0 -0 -0 -0 -0 -0 -0 -0 -0 -0 -0 -0 -0 -0 -0 -0 -0 -0 -0 -0 -0 -0 -0 -0 -0 -0 -0 -0 -0 -0 -0 -0 -0 -0 -0 -0 -0 -0 -0 -0 -0
-0 -0 -0 -0 -0 -0 -0 -0 -0 -0 -0 -0 -0 -0 -0 -0 -0 -0 -0 -0 -0 -0 -0 -0 -0 -0 -0 -0 -0 -0 -0 -0 -2 -0 -0 -0 -0 -0 -0 -0 -0 -0 -0 -0
-0 -0 -0 -0 -0 -0 -0 -0 -0 -0 -0 -0 -0 -0 -0 -0 -0 -0 -0 -0 -0 -0 -0 -0 -0 -2 -0 -0 -0 -0 -1 -4 -4 -2 -1 -0 -1 -0 -0 -0 -0 -0 -0 -0
-0 -0 -0 -0 -0 -0 -0 -0 -0 -0 -0 -0 -0 -0 -0 -0 -0 -0 -0 -0 -0 -0 -0 -25 -0 -0 -0 -0 -0 -1 -0 -0 -0 -0 -0 -0 -1 -0 -0 -1 -0 -0 -0 -0
-0 -0 -0 -0 -0 -0 -0 -0 -0 -0 -0 -0 -0 -0 -0 -0 -0 -0 -0 -0 -0 -0 -0 -0 -0 -0 -0 -0 -0 -0 -1 -1 -3 -0 -1 -0 -0 -0 -0 -0 -0 -0 -0 -0
-0 -0 -0 -0 -0 -0 -0 -0 -0 -0 -0 -0 -0 -0 -0 -0 -0 -0 -0 -0 -0 -8 -0 -0 -0 -0 -0 -0 -0 -0 -0 -3 -0 -0 -1 -0 -0 -0 -0 -0 -0 -0 -1 -0
Wind_Speed
19 18 16 13 18 21 20 21 25 27 23 25 25 17 8 8 7 9 9 8 8 12 14 14 16 16 17 15 16 16 14 15 15 16 16 17 18 12 13 13 14 15 12 15
17 21 21 19 22 22 26 27 29 29 27 25 24 19 19 13 7 3 4 10 9 12 12 17 16 13 14 15 14 14 15 14 14 14 13 10 12 10 6 3 6 10 12 15
13 13 11 11 20 21 22 15 22 27 28 24 22 23 23 27 25 22 19 11 7 15 18 15 16 11 10 12 14 14 14 10 9 9 6 3 3 5 7 8 6 7 9 13
17 24 24 22 20 11 17 18 22 25 24 23 20 27 32 30 33 21 14 9 4 16 12 9 9 12 13 11 14 10 8 7 5 7 7 9 10 11 13 12 11 11 10 11
17 25 24 14 7 14 19 18 23 21 22 22 24 23 27 28 24 12 9 9 9 7 6 7 5 3 1 2 3 3 3 4 3 5 8 9 12 17 20 19 15 15 16 17
33 26 23 18 14 13 15 16 19 19 19 20 20 15 20 22 4 7 11 13 13 13 12 11 8 7 8 11 13 8 7 8 9 9 12 16 18 20 23 24 24 22 21 21
25 26 25 19 16 19 14 15 17 16 11 10 18 15 17 10 8 8 12 14 17 18 18 17 15 13 12 15 19 20 12 13 12 17 21 23 23 27 27 27 27 28 27 26
20 21 19 13 11 10 9 8 9 9 9 16 16 8 8 11 12 13 14 14 15 16 17 17 16 15 15 18 19 20 21 21 19 18 22 26 27 30 33 34 35 33 33 32
13 18 28 5 8 5 12 13 11 14 17 14 10 9 5 6 9 11 11 12 12 13 13 13 15 15 16 18 20 20 20 21 21 21 22 24 26 27 30 33 34 34 32 31
15 17 14 6 7 11 14 13 13 15 9 8 5 6 2 3 2 5 7 8 10 11 12 13 14 16 17 19 21 23 24 23 24 25 25 27 28 29 30 32 35 36 36 34
12 13 13 11 12 16 19 20 15 12 12 9 10 12 12 3 1 3 6 8 10 11 12 14 16 18 20 23 25 26 28 28 30 32 34 34 34 35 36 38 39 38 38 38
15 13 16 16 18 18 17 16 14 14 13 16 14 16 10 2 4 6 8 9 12 12 14 16 19 23 27 29 30 32 34 34 37 40 39 39 41 44 46 44 43 41 42 41
17 18 21 25 20 20 17 19 17 14 15 18 19 15 10 7 6 8 8 11 12 14 18 21 24 27 30 33 35 38 39 41 42 42 42 45 46 46 46 46 48 46 47 46
15 18 20 24 23 21 24 24 20 19 19 20 21 9 12 10 10 11 11 12 15 18 21 24 28 31 33 35 37 39 40 41 43 43 43 44 45 44 44 46 45 46 49 48
18 19 21 22 22 25 26 29 28 24 20 21 17 11 10 11 10 11 13 16 20 24 27 30 32 34 35 37 40 39 40 41 40 43 44 44 44 43 44 45 45 45 47 47
20 24 24 31 28 29 32 32 32 29 25 24 15 13 8 9 10 14 17 20 24 27 29 32 35 38 40 43 43 42 41 41 39 39 39 39 39 39 41 41 40 44 46 46
23 22 24 26 27 28 31 30 27 22 23 19 20 14 9 12 15 18 21 25 28 30 32 34 37 40 42 43 42 42 41 39 37 37 38 39 40 40 41 41 44 46 47 46
20 18 21 25 25 32 24 23 14 11 16 12 7 8 11 10 13 17 21 24 27 30 32 35 38 39 40 39 37 36 36 37 37 39 39 40 41 41 41 42 44 44 45 46
17 20 24 26 26 28 25 19 18 15 17 14 12 13 15 13 16 22 24 27 30 32 31 35 38 37 38 36 36 38 39 39 39 41 41 41 42 43 42 42 42 41 41 41
21 21 24 24 28 30 21 17 18 15 22 14 12 15 18 21 28 27 30 30 30 33 36 40 38 35 35 36 37 39 39 40 41 43 44 43 43 42 40 39 42 40 40 40
21 23 25 25 28 28 21 22 18 24 22 10 12 16 20 25 24 26 29 30 32 36 38 36 33 34 34 34 36 38 39 39 41 42 42 43 41 40 38 39 41 41 43 41
23 24 27 26 30 37 16 19 21 14 12 13 17 20 24 27 28 29 32 31 34 35 33 32 32 33 33 34 36 37 38 40 40 41 41 40 41 39 38 38 40 40 40 40
25 23 24 23 25 18 17 14 10 10 13 18 20 23 26 29 31 32 26 27 29 28 30 30 30 30 31 34 34 37 39 40 41 42 40 41 40 39 39 38 40 40 36 37
20 18 19 19 18 14 11 12 11 13 16 17 20 22 24 27 28 24 22 24 27 28 29 27 28 30 33 35 36 36 37 39 43 42 40 39 39 40 39 41 41 41 41 39
20 19 19 19 11 12 15 14 14 16 16 18 20 21 22 24 22 21 22 25 26 26 25 27 27 29 32 35 35 36 38 39 41 40 38 38 40 39 40 41 41 44 41 39
21 21 21 21 12 18 14 13 14 18 20 21 22 22 23 18 19 21 23 24 23 23 24 26 27 28 29 32 34 37 40 39 39 40 40 39 40 40 41 44 43 42 44 46
Wind_Direction
265 272 270 271 269 276 285 288 290 293 321 318 317 334 340 129 143 165 186 194 187 184 168 157 155 146 144 140 144 149 145 148 144 148 154 160 165 146 161 163 169 174 169 171
274 268 265 270 267 274 279 281 280 289 301 312 312 321 285 284 321 244 232 214 204 186 172 171 163 155 150 147 141 147 159 160 163 162 165 165 174 177 167 157 171 178 187 189
275 279 288 283 272 283 293 298 300 297 304 306 311 298 285 274 298 316 310 301 208 183 179 177 171 164 154 153 155 154 158 161 174 185 182 232 235 239 223 218 224 214 203 205
272 248 263 274 281 303 301 303 307 306 313 302 317 293 275 283 276 321 328 339 104 176 175 171 176 163 160 164 163 164 155 162 174 187 211 218 224 225 226 238 254 260 249 238
273 271 286 301 303 303 306 306 297 308 306 310 306 304 292 296 297 321 341 7 20 73 104 130 123 143 331 183 255 273 272 227 282 261 275 262 275 295 299 292 275 263 269 271
257 283 291 301 294 301 309 311 305 309 305 311 322 327 313 311 20 59 50 43 45 57 58 62 57 51 18 354 333 291 279 306 308 298 299 296 294 294 298 298 294 290 286 281
275 272 275 287 297 293 300 300 307 318 330 339 325 341 325 338 48 52 73 58 59 62 65 63 58 51 26 10 5 2 349 319 310 311 309 305 303 301 301 300 296 293 290 287
286 279 279 297 306 309 304 319 301 325 341 312 322 15 27 53 64 65 58 58 59 58 55 51 47 39 27 17 15 17 15 13 9 348 333 324 312 306 305 304 301 296 293 290
298 299 274 213 315 325 299 292 300 305 306 312 328 337 3 65 57 54 56 52 41 46 45 39 33 23 16 13 13 13 9 2 357 354 346 338 332 325 319 317 317 312 305 299
293 301 316 296 305 310 293 298 304 297 311 313 318 304 295 254 325 25 22 29 34 30 29 25 23 20 13 6 360 358 356 353 350 346 340 334 329 325 321 318 315 313 313 312
278 292 298 291 287 297 292 287 299 311 309 311 312 306 298 266 303 7 5 1 355 357 2 357 357 357 358 354 350 347 342 338 333 330 326 323 323 320 317 314 313 313 311 310
281 285 280 280 287 294 302 300 299 303 303 300 308 302 311 284 319 329 339 345 351 356 356 354 350 344 338 336 334 331 330 331 326 323 321 318 315 312 309 308 308 309 308 308
271 278 276 273 282 290 294 304 311 312 306 295 295 300 295 301 325 333 340 340 345 349 347 344 341 337 333 330 327 325 324 322 322 322 319 316 314 312 309 307 305 305 305 303
292 286 280 277 281 289 280 288 306 306 296 294 295 288 285 290 306 320 332 339 342 340 338 335 332 332 331 330 328 325 324 324 323 322 321 319 317 316 314 311 308 306 305 303
291 287 286 286 290 288 285 284 290 297 300 295 299 282 274 295 312 325 330 332 331 329 328 328 329 331 332 331 329 328 328 327 326 324 322 320 319 318 316 313 312 311 308 304
294 287 290 281 287 290 285 285 286 289 292 292 293 287 291 313 328 327 327 327 326 326 329 330 328 328 329 328 327 326 326 326 328 327 327 328 327 325 323 322 321 316 312 310
286 289 287 285 288 291 287 288 287 292 296 291 278 281 287 307 317 320 323 325 324 326 327 327 328 328 326 326 326 325 326 327 328 328 328 328 327 325 325 323 320 317 315 312
281 284 290 289 295 284 295 307 305 305 315 318 319 305 309 309 323 328 331 327 327 327 327 327 327 328 330 330 330 332 333 332 331 329 329 328 327 326 324 323 321 319 319 316
283 282 286 286 287 289 290 299 300 300 304 316 314 315 316 320 316 320 329 328 326 328 329 329 329 330 330 331 333 331 330 331 330 329 329 329 328 328 326 324 324 322 321 321
273 278 279 283 285 285 295 297 309 309 293 313 321 319 317 315 305 310 321 326 329 329 328 328 330 331 332 332 333 332 332 332 331 330 329 330 329 329 330 328 326 325 322 320
270 274 273 280 283 288 293 297 308 290 297 318 323 321 319 315 317 319 323 326 328 328 329 330 332 332 333 334 335 334 334 335 334 333 335 336 336 334 334 332 330 328 324 324
275 275 276 281 281 282 302 305 295 308 321 322 320 319 318 320 321 323 323 325 327 330 331 332 332 332 335 338 337 337 337 335 336 336 336 339 339 340 339 339 337 335 331 328
279 281 281 284 289 305 311 316 328 329 324 318 318 320 322 322 322 323 329 331 334 338 337 337 337 337 340 338 341 337 338 339 338 338 338 339 340 342 343 343 341 340 340 335
292 299 293 295 302 310 322 328 332 335 326 327 328 327 328 327 330 334 337 338 338 339 340 344 343 342 339 339 340 341 340 341 339 340 341 341 344 343 343 343 343 343 342 339
292 299 296 300 304 317 316 320 324 329 334 333 332 333 332 335 338 341 340 340 340 342 346 345 345 344 342 342 344 346 344 343 343 346 346 346 344 345 344 345 346 345 347 345
290 290 289 292 284 303 309 318 326 323 324 326 328 329 337 347 343 345 343 344 345 348 348 349 348 348 349 350 350 352 351 348 347 348 348 348 347 348 346 343 345 349 347 346